Time,TemperatureF,DewpointF,PressureIn,WindDirection,WindDirectionDegrees,WindSpeedMPH,WindSpeedGustMPH,Humidity,HourlyPrecipIn,Conditions,Clouds,dailyrainin,SoftwareType,DateUTC
2013-12-05 00:04:00,51.2,37.8,29.80,NE,40,3.0,4.0,60,0.00,,SKC,0.00,VWS V14.01,2013-12-05 07:04:00,
2013-12-05 00:09:00,51.2,38.2,29.80,East,97,7.0,7.0,61,0.00,,SKC,0.00,VWS V14.01,2013-12-05 07:09:00,
2013-12-05 00:14:00,51.2,38.2,29.79,ESE,114,3.0,7.0,61,0.00,,SKC,0.00,VWS V14.01,2013-12-05 07:14:00,
2013-12-05 00:19:00,51.2,37.8,29.79,NE,53,2.0,7.0,60,0.00,,SKC,0.00,VWS V14.01,2013-12-05 07:19:00,
2013-12-05 00:24:00,51.1,38.1,29.80,East,91,2.0,7.0,61,0.00,,SKC,0.00,VWS V14.01,2013-12-05 07:24:00,
2013-12-05 00:29:00,50.9,38.0,29.80,ENE,74,4.0,7.0,61,0.00,,SKC,0.00,VWS V14.01,2013-12-05 07:29:00,
2013-12-05 00:34:00,50.8,37.8,29.79,ENE,77,3.0,4.0,61,0.00,,SKC,0.00,VWS V14.01,2013-12-05 07:34:00,
2013-12-05 00:39:00,50.6,38.1,29.79,ESE,108,2.0,4.0,62,0.00,,SKC,0.00,VWS V14.01,2013-12-05 07:39:00,
2013-12-05 00:44:00,50.5,38.0,29.78,East,94,0.0,4.0,62,0.00,,SKC,0.00,VWS V14.01,2013-12-05 07:44:00,
2013-12-05 00:49:00,50.2,37.7,29.78,ENE,60,2.0,4.0,62,0.00,,SKC,0.00,VWS V14.01,2013-12-05 07:49:00,
2013-12-05 00:55:00,50.1,37.6,29.77,SE,127,1.0,4.0,62,0.00,,SKC,0.00,VWS V14.01,2013-12-05 07:55:00,
2013-12-05 01:00:00,50.0,37.5,29.78,SE,132,0.0,1.0,62,0.00,,SKC,0.00,VWS V14.01,2013-12-05 08:00:00,
2013-12-05 01:05:00,49.7,37.2,29.78,SE,130,0.0,1.0,62,0.00,,SKC,0.00,VWS V14.01,2013-12-05 08:05:00,
2013-12-05 01:10:00,49.8,37.3,29.77,NE,53,2.0,4.0,62,0.00,,SKC,0.00,VWS V14.01,2013-12-05 08:10:00,
2013-12-05 01:15:00,49.7,37.2,29.78,ESE,113,1.0,4.0,62,0.00,,SKC,0.00,VWS V14.01,2013-12-05 08:15:00,
2013-12-05 01:20:00,49.4,37.3,29.77,East,101,0.0,4.0,63,0.00,,SKC,0.00,VWS V14.01,2013-12-05 08:20:00,
2013-12-05 01:25:00,49.2,37.6,29.77,ESE,105,0.0,4.0,64,0.00,,SKC,0.00,VWS V14.01,2013-12-05 08:25:00,
2013-12-05 01:30:00,49.1,37.9,29.76,ENE,59,1.0,3.0,65,0.00,,SKC,0.00,VWS V14.01,2013-12-05 08:30:00,
2013-12-05 01:35:00,49.1,37.9,29.77,East,91,1.0,3.0,65,0.00,,SKC,0.00,VWS V14.01,2013-12-05 08:35:00,
2013-12-05 01:40:00,49.1,37.9,29.77,ESE,115,2.0,3.0,65,0.00,,SKC,0.00,VWS V14.01,2013-12-05 08:40:00,
2013-12-05 01:45:00,49.2,38.0,29.77,East,101,5.0,5.0,65,0.00,,SKC,0.00,VWS V14.01,2013-12-05 08:45:00,
2013-12-05 01:50:00,49.5,38.2,29.77,ESE,111,1.0,5.0,65,0.00,,SKC,0.00,VWS V14.01,2013-12-05 08:50:00,
2013-12-05 01:55:00,49.7,38.0,29.77,ESE,123,6.0,6.0,64,0.00,,SKC,0.00,VWS V14.01,2013-12-05 08:55:00,
2013-12-05 02:00:00,49.9,38.2,29.77,SE,138,1.0,3.0,64,0.00,,SKC,0.00,VWS V14.01,2013-12-05 09:00:00,
2013-12-05 02:05:00,49.9,38.2,29.77,SE,138,0.0,3.0,64,0.00,,SKC,0.00,VWS V14.01,2013-12-05 09:05:00,
2013-12-05 02:11:00,49.8,38.1,29.77,SE,138,0.0,3.0,64,0.00,,SKC,0.00,VWS V14.01,2013-12-05 09:11:00,
2013-12-05 02:16:00,49.7,38.0,29.77,SE,131,1.0,3.0,64,0.00,,SKC,0.00,VWS V14.01,2013-12-05 09:16:00,
2013-12-05 02:21:00,49.9,38.2,29.76,SE,145,0.0,3.0,64,0.00,,SKC,0.00,VWS V14.01,2013-12-05 09:21:00,
2013-12-05 02:26:00,50.0,38.3,29.76,SSE,155,0.0,3.0,64,0.00,,SKC,0.00,VWS V14.01,2013-12-05 09:26:00,
2013-12-05 02:31:00,49.9,38.2,29.76,SSE,155,0.0,0.0,64,0.00,,SKC,0.00,VWS V14.01,2013-12-05 09:31:00,
2013-12-05 02:36:00,49.8,38.1,29.76,SSE,155,0.0,1.0,64,0.00,,SKC,0.00,VWS V14.01,2013-12-05 09:36:00,
2013-12-05 02:41:00,50.0,37.9,29.76,South,176,0.0,1.0,63,0.00,,SKC,0.00,VWS V14.01,2013-12-05 09:41:00,
2013-12-05 02:46:00,50.0,37.9,29.76,South,176,0.0,1.0,63,0.00,,SKC,0.00,VWS V14.01,2013-12-05 09:46:00,
2013-12-05 02:51:00,49.9,37.8,29.77,South,179,0.0,2.0,63,0.00,,SKC,0.00,VWS V14.01,2013-12-05 09:51:00,
2013-12-05 02:56:00,50.0,37.9,29.77,South,173,0.0,3.0,63,0.00,,SKC,0.00,VWS V14.01,2013-12-05 09:56:00,
2013-12-05 03:01:00,50.1,38.0,29.76,South,173,0.0,0.0,63,0.00,,SKC,0.00,VWS V14.01,2013-12-05 10:01:00,
2013-12-05 03:06:00,49.9,37.8,29.76,South,173,0.0,0.0,63,0.00,,SKC,0.00,VWS V14.01,2013-12-05 10:06:00,
2013-12-05 03:11:00,50.0,37.9,29.76,NE,44,2.0,3.0,63,0.00,,SKC,0.00,VWS V14.01,2013-12-05 10:11:00,
2013-12-05 03:16:00,50.2,38.1,29.76,NE,46,5.0,5.0,63,0.00,,SKC,0.00,VWS V14.01,2013-12-05 10:16:00,
2013-12-05 03:21:00,50.3,38.2,29.76,East,80,3.0,5.0,63,0.00,,SKC,0.00,VWS V14.01,2013-12-05 10:21:00,
2013-12-05 03:26:00,50.4,38.3,29.76,NE,56,5.0,5.0,63,0.00,,SKC,0.00,VWS V14.01,2013-12-05 10:26:00,
2013-12-05 03:32:00,50.4,37.9,29.76,North,8,4.0,5.0,62,0.00,,SKC,0.00,VWS V14.01,2013-12-05 10:32:00,
2013-12-05 03:37:00,50.4,37.9,29.76,NW,314,2.0,5.0,62,0.00,,SKC,0.00,VWS V14.01,2013-12-05 10:37:00,
2013-12-05 03:42:00,50.5,38.0,29.76,NNW,343,3.0,6.0,62,0.00,,SKC,0.00,VWS V14.01,2013-12-05 10:42:00,
2013-12-05 03:47:00,50.4,37.9,29.76,North,9,5.0,6.0,62,0.00,,SKC,0.00,VWS V14.01,2013-12-05 10:47:00,
2013-12-05 03:52:00,50.3,38.2,29.76,NW,326,4.0,6.0,63,0.00,,SKC,0.00,VWS V14.01,2013-12-05 10:52:00,
2013-12-05 03:57:00,50.4,37.9,29.76,SE,129,0.0,6.0,62,0.00,,SKC,0.00,VWS V14.01,2013-12-05 10:57:00,
2013-12-05 04:02:00,50.4,37.9,29.76,NNE,15,3.0,5.0,62,0.00,,SKC,0.00,VWS V14.01,2013-12-05 11:02:00,
2013-12-05 04:07:00,50.5,38.0,29.76,NNE,21,6.0,7.0,62,0.00,,SKC,0.00,VWS V14.01,2013-12-05 11:07:00,
2013-12-05 04:12:00,50.6,38.1,29.76,NNW,333,4.0,8.0,62,0.00,,SKC,0.00,VWS V14.01,2013-12-05 11:12:00,
2013-12-05 04:17:00,50.7,37.8,29.75,East,86,3.0,8.0,61,0.00,,SKC,0.00,VWS V14.01,2013-12-05 11:17:00,
2013-12-05 04:22:00,50.6,38.1,29.75,NE,55,4.0,8.0,62,0.00,,SKC,0.00,VWS V14.01,2013-12-05 11:22:00,
2013-12-05 04:27:00,50.6,38.1,29.75,SE,136,2.0,8.0,62,0.00,,SKC,0.00,VWS V14.01,2013-12-05 11:27:00,
2013-12-05 04:32:00,50.8,38.3,29.75,SE,143,2.0,7.0,62,0.00,,SKC,0.00,VWS V14.01,2013-12-05 11:32:00,
2013-12-05 04:37:00,50.4,40.2,29.76,SSW,203,4.0,7.0,68,0.00,,SKC,0.00,VWS V14.01,2013-12-05 11:37:00,
2013-12-05 04:42:00,48.8,40.5,29.76,SW,217,4.0,7.0,73,0.00,,SKC,0.00,VWS V14.01,2013-12-05 11:42:00,
2013-12-05 04:47:00,47.5,40.0,29.75,SSW,201,10.0,10.0,75,0.00,,SKC,0.00,VWS V14.01,2013-12-05 11:47:00,
2013-12-05 04:52:00,46.6,39.8,29.76,SSW,194,7.0,11.0,77,0.00,,SKC,0.00,VWS V14.01,2013-12-05 11:52:00,
2013-12-05 04:57:00,45.8,39.3,29.76,South,190,4.0,11.0,78,0.00,,SKC,0.00,VWS V14.01,2013-12-05 11:57:00,
2013-12-05 05:02:00,45.3,38.9,29.77,SSW,195,2.0,6.0,78,0.00,,SKC,0.00,VWS V14.01,2013-12-05 12:02:00,
2013-12-05 05:07:00,44.8,38.7,29.77,South,170,9.0,9.0,79,0.00,,SKC,0.00,VWS V14.01,2013-12-05 12:07:00,
2013-12-05 05:12:00,44.1,38.0,29.77,South,170,6.0,9.0,79,0.00,,SKC,0.00,VWS V14.01,2013-12-05 12:12:00,
2013-12-05 05:18:00,43.6,37.8,29.77,South,185,5.0,9.0,80,0.00,,SKC,0.00,VWS V14.01,2013-12-05 12:18:00,
2013-12-05 05:23:00,43.1,37.4,29.78,SSE,155,3.0,10.0,80,0.00,,SKC,0.00,VWS V14.01,2013-12-05 12:23:00,
2013-12-05 05:28:00,42.7,37.6,29.78,SSW,200,4.0,10.0,82,0.00,,SKC,0.00,VWS V14.01,2013-12-05 12:28:00,
2013-12-05 05:33:00,42.1,37.6,29.78,South,185,2.0,7.0,84,0.00,,SKC,0.00,VWS V14.01,2013-12-05 12:33:00,
2013-12-05 05:38:00,41.6,37.4,29.78,SSE,158,3.0,7.0,85,0.00,,SKC,0.00,VWS V14.01,2013-12-05 12:38:00,
2013-12-05 05:43:00,41.4,37.5,29.78,SSE,159,4.0,7.0,86,0.00,,SKC,0.00,VWS V14.01,2013-12-05 12:43:00,
2013-12-05 05:48:00,41.3,37.4,29.78,South,191,5.0,7.0,86,0.00,,SKC,0.00,VWS V14.01,2013-12-05 12:48:00,
2013-12-05 05:53:00,41.3,37.7,29.79,SW,215,2.0,7.0,87,0.00,,SKC,0.00,VWS V14.01,2013-12-05 12:53:00,
2013-12-05 05:58:00,40.9,37.3,29.79,SSW,203,5.0,7.0,87,0.00,,SKC,0.00,VWS V14.01,2013-12-05 12:58:00,
2013-12-05 06:03:00,40.7,37.4,29.79,SSW,203,7.0,11.0,88,0.00,,SKC,0.00,VWS V14.01,2013-12-05 13:03:00,
2013-12-05 06:08:00,40.6,37.3,29.80,SW,224,2.0,11.0,88,0.01,,SKC,0.01,VWS V14.01,2013-12-05 13:08:00,
2013-12-05 06:13:00,40.4,37.1,29.80,WSW,238,5.0,11.0,88,0.01,,SKC,0.01,VWS V14.01,2013-12-05 13:13:00,
2013-12-05 06:18:00,40.4,37.1,29.80,South,177,0.0,11.0,88,0.01,,SKC,0.01,VWS V14.01,2013-12-05 13:18:00,
2013-12-05 06:23:00,40.3,37.0,29.80,SW,222,4.0,11.0,88,0.01,,SKC,0.01,VWS V14.01,2013-12-05 13:23:00,
2013-12-05 06:28:00,40.2,36.9,29.80,South,177,0.0,11.0,88,0.01,,SKC,0.01,VWS V14.01,2013-12-05 13:28:00,
2013-12-05 06:33:00,40.1,36.8,29.80,SW,228,4.0,4.0,88,0.01,,SKC,0.01,VWS V14.01,2013-12-05 13:33:00,
2013-12-05 06:38:00,39.9,36.6,29.81,SE,142,1.0,4.0,88,0.01,,SKC,0.01,VWS V14.01,2013-12-05 13:38:00,
2013-12-05 06:44:00,39.9,36.6,29.81,South,180,1.0,4.0,88,0.01,,SKC,0.01,VWS V14.01,2013-12-05 13:44:00,
2013-12-05 06:49:00,39.8,36.5,29.81,South,172,3.0,7.0,88,0.01,,SKC,0.01,VWS V14.01,2013-12-05 13:49:00,
2013-12-05 06:54:00,39.4,35.9,29.81,SSW,211,7.0,8.0,87,0.01,,SKC,0.01,VWS V14.01,2013-12-05 13:54:00,
2013-12-05 06:59:00,39.1,35.6,29.81,South,173,8.0,8.0,87,0.01,,SKC,0.01,VWS V14.01,2013-12-05 13:59:00,
2013-12-05 07:04:00,38.8,35.3,29.81,SSE,165,5.0,7.0,87,0.01,,SKC,0.01,VWS V14.01,2013-12-05 14:04:00,
2013-12-05 07:09:00,38.7,35.2,29.81,SE,129,3.0,9.0,87,0.01,,SKC,0.01,VWS V14.01,2013-12-05 14:09:00,
2013-12-05 07:14:00,38.7,35.2,29.81,South,172,4.0,9.0,87,0.01,,SKC,0.01,VWS V14.01,2013-12-05 14:14:00,
2013-12-05 07:19:00,38.8,35.3,29.82,SSE,165,1.0,9.0,87,0.01,,SKC,0.01,VWS V14.01,2013-12-05 14:19:00,
2013-12-05 07:24:00,39.0,35.5,29.82,SSE,148,10.0,10.0,87,0.01,,SKC,0.01,VWS V14.01,2013-12-05 14:24:00,
2013-12-05 07:29:00,39.1,35.3,29.82,East,86,8.0,12.0,86,0.01,,SKC,0.01,VWS V14.01,2013-12-05 14:29:00,
2013-12-05 07:34:00,39.1,35.3,29.83,South,174,7.0,10.0,86,0.00,,SKC,0.01,VWS V14.01,2013-12-05 14:34:00,
2013-12-05 07:39:00,39.1,35.0,29.83,South,174,4.0,13.0,85,0.00,,SKC,0.01,VWS V14.01,2013-12-05 14:39:00,
2013-12-05 07:44:00,39.2,35.4,29.83,South,171,4.0,13.0,86,0.00,,SKC,0.01,VWS V14.01,2013-12-05 14:44:00,
2013-12-05 07:49:00,39.2,35.4,29.84,SE,139,3.0,13.0,86,0.00,,SKC,0.01,VWS V14.01,2013-12-05 14:49:00,
2013-12-05 07:54:00,39.1,35.3,29.84,South,173,2.0,13.0,86,0.00,,SKC,0.01,VWS V14.01,2013-12-05 14:54:00,
2013-12-05 07:59:00,39.1,35.6,29.84,SSE,153,4.0,13.0,87,0.00,,SKC,0.01,VWS V14.01,2013-12-05 14:59:00,
2013-12-05 08:04:00,39.0,35.5,29.84,SSE,162,8.0,8.0,87,0.00,,SKC,0.01,VWS V14.01,2013-12-05 15:04:00,
2013-12-05 08:09:00,39.1,35.6,29.85,SSE,150,6.0,8.0,87,0.00,,SKC,0.01,VWS V14.01,2013-12-05 15:09:00,
2013-12-05 08:15:00,39.2,35.7,29.85,SE,143,0.0,8.0,87,0.00,,SKC,0.01,VWS V14.01,2013-12-05 15:15:00,
2013-12-05 08:20:00,39.1,35.6,29.85,SSE,162,4.0,8.0,87,0.00,,SKC,0.01,VWS V14.01,2013-12-05 15:20:00,
2013-12-05 08:25:00,39.0,35.5,29.86,SSW,198,4.0,8.0,87,0.00,,SKC,0.01,VWS V14.01,2013-12-05 15:25:00,
2013-12-05 08:30:00,39.0,35.5,29.86,South,190,1.0,2.0,87,0.00,,SKC,0.01,VWS V14.01,2013-12-05 15:30:00,
2013-12-05 08:35:00,39.1,35.8,29.87,SSW,211,1.0,5.0,88,0.00,,SKC,0.01,VWS V14.01,2013-12-05 15:35:00,
2013-12-05 08:40:00,39.1,35.8,29.87,West,269,1.0,5.0,88,0.00,,SKC,0.01,VWS V14.01,2013-12-05 15:40:00,
2013-12-05 08:45:00,39.1,35.8,29.87,SW,235,0.0,5.0,88,0.00,,SKC,0.01,VWS V14.01,2013-12-05 15:45:00,
2013-12-05 08:50:00,39.1,36.1,29.87,SSW,211,2.0,5.0,89,0.00,,SKC,0.01,VWS V14.01,2013-12-05 15:50:00,
2013-12-05 08:55:00,39.2,36.2,29.88,SW,214,3.0,5.0,89,0.00,,SKC,0.01,VWS V14.01,2013-12-05 15:55:00,
2013-12-05 09:00:00,39.2,36.2,29.88,SSW,200,2.0,4.0,89,0.00,,SKC,0.01,VWS V14.01,2013-12-05 16:00:00,
2013-12-05 09:05:00,39.3,36.3,29.88,SSW,194,1.0,4.0,89,0.00,,SKC,0.01,VWS V14.01,2013-12-05 16:05:00,
2013-12-05 09:10:00,39.4,36.4,29.88,SSW,195,1.0,4.0,89,0.01,,SKC,0.02,VWS V14.01,2013-12-05 16:10:00,
2013-12-05 09:15:00,39.5,36.8,29.88,South,181,3.0,4.0,90,0.01,,SKC,0.02,VWS V14.01,2013-12-05 16:15:00,
2013-12-05 09:20:00,39.6,36.6,29.88,SSW,205,4.0,6.0,89,0.01,,SKC,0.02,VWS V14.01,2013-12-05 16:20:00,
2013-12-05 09:25:00,39.8,37.1,29.89,SSE,155,6.0,6.0,90,0.01,,SKC,0.02,VWS V14.01,2013-12-05 16:25:00,
2013-12-05 09:30:00,39.9,37.5,29.89,SSW,201,3.0,3.0,91,0.01,,SKC,0.02,VWS V14.01,2013-12-05 16:30:00,
2013-12-05 09:35:00,39.8,37.1,29.89,South,185,2.0,4.0,90,0.01,,SKC,0.02,VWS V14.01,2013-12-05 16:35:00,
2013-12-05 09:41:00,39.7,37.0,29.89,SW,221,2.0,6.0,90,0.01,,SKC,0.02,VWS V14.01,2013-12-05 16:41:00,
2013-12-05 09:46:00,39.9,37.5,29.89,SSW,199,4.0,6.0,91,0.01,,SKC,0.02,VWS V14.01,2013-12-05 16:46:00,
2013-12-05 09:51:00,40.1,37.4,29.89,South,185,3.0,6.0,90,0.01,,SKC,0.02,VWS V14.01,2013-12-05 16:51:00,
2013-12-05 09:56:00,40.4,37.4,29.89,SW,214,1.0,6.0,89,0.01,,SKC,0.02,VWS V14.01,2013-12-05 16:56:00,
2013-12-05 10:01:00,40.7,37.7,29.90,SW,221,2.0,2.0,89,0.01,,SKC,0.02,VWS V14.01,2013-12-05 17:01:00,
2013-12-05 10:06:00,40.7,36.8,29.90,SW,217,2.0,4.0,86,0.01,,SKC,0.02,VWS V14.01,2013-12-05 17:06:00,
2013-12-05 10:11:00,40.7,36.8,29.90,South,189,4.0,5.0,86,0.01,,SKC,0.02,VWS V14.01,2013-12-05 17:11:00,
2013-12-05 10:16:00,40.6,36.8,29.90,SW,224,3.0,5.0,86,0.01,,SKC,0.02,VWS V14.01,2013-12-05 17:16:00,
2013-12-05 10:21:00,40.5,36.7,29.90,SSE,160,2.0,5.0,86,0.01,,SKC,0.02,VWS V14.01,2013-12-05 17:21:00,
2013-12-05 10:26:00,40.5,36.9,29.90,SSE,165,2.0,5.0,87,0.01,,SKC,0.02,VWS V14.01,2013-12-05 17:26:00,
2013-12-05 10:31:00,40.4,36.5,29.90,South,190,3.0,4.0,86,0.00,,SKC,0.02,VWS V14.01,2013-12-05 17:31:00,
2013-12-05 10:36:00,40.4,36.5,29.90,South,187,3.0,7.0,86,0.00,,SKC,0.02,VWS V14.01,2013-12-05 17:36:00,
2013-12-05 10:41:00,40.4,36.3,29.91,SW,214,3.0,7.0,85,0.00,,SKC,0.02,VWS V14.01,2013-12-05 17:41:00,
2013-12-05 10:46:00,40.6,36.2,29.90,South,173,2.0,7.0,84,0.00,,SKC,0.02,VWS V14.01,2013-12-05 17:46:00,
2013-12-05 10:51:00,40.7,35.6,29.90,SE,124,3.0,7.0,82,0.00,,SKC,0.02,VWS V14.01,2013-12-05 17:51:00,
2013-12-05 10:56:00,40.8,35.4,29.90,SE,136,2.0,7.0,81,0.00,,SKC,0.02,VWS V14.01,2013-12-05 17:56:00,
2013-12-05 11:01:00,41.0,35.3,29.90,South,180,4.0,6.0,80,0.00,,SKC,0.02,VWS V14.01,2013-12-05 18:01:00,
2013-12-05 11:06:00,40.7,35.0,29.90,SSE,162,4.0,11.0,80,0.00,,SKC,0.02,VWS V14.01,2013-12-05 18:06:00,
2013-12-05 11:11:00,40.9,35.5,29.90,SSE,159,3.0,11.0,81,0.00,,SKC,0.02,VWS V14.01,2013-12-05 18:11:00,
2013-12-05 11:16:00,41.5,36.1,29.89,South,187,9.0,11.0,81,0.00,,SKC,0.02,VWS V14.01,2013-12-05 18:16:00,
2013-12-05 11:22:00,42.0,36.0,29.89,SSE,148,9.0,11.0,79,0.00,,SKC,0.02,VWS V14.01,2013-12-05 18:22:00,
2013-12-05 11:27:00,42.5,36.5,29.90,South,169,3.0,11.0,79,0.00,,SKC,0.02,VWS V14.01,2013-12-05 18:27:00,
2013-12-05 11:32:00,43.3,36.3,29.89,South,174,5.0,10.0,76,0.00,,SKC,0.02,VWS V14.01,2013-12-05 18:32:00,
2013-12-05 11:37:00,43.7,36.6,29.90,South,186,8.0,10.0,76,0.00,,SKC,0.02,VWS V14.01,2013-12-05 18:37:00,
2013-12-05 11:42:00,43.7,36.6,29.89,South,173,7.0,10.0,76,0.00,,SKC,0.02,VWS V14.01,2013-12-05 18:42:00,
2013-12-05 11:47:00,44.2,37.5,29.88,SSE,152,3.0,10.0,77,0.00,,SKC,0.02,VWS V14.01,2013-12-05 18:47:00,
2013-12-05 11:52:00,44.4,37.3,29.88,South,172,4.0,11.0,76,0.00,,SKC,0.02,VWS V14.01,2013-12-05 18:52:00,
2013-12-05 11:57:00,45.1,37.3,29.88,SSE,160,8.0,11.0,74,0.00,,SKC,0.02,VWS V14.01,2013-12-05 18:57:00,
2013-12-05 12:02:00,44.9,37.1,29.87,South,181,3.0,5.0,74,0.00,,SKC,0.02,VWS V14.01,2013-12-05 19:02:00,
2013-12-05 12:07:00,44.7,37.3,29.87,SSE,156,4.0,8.0,75,0.00,,SKC,0.02,VWS V14.01,2013-12-05 19:07:00,
2013-12-05 12:12:00,44.0,36.3,29.87,SSE,148,3.0,13.0,74,0.00,,SKC,0.02,VWS V14.01,2013-12-05 19:12:00,
2013-12-05 12:17:00,43.4,36.3,29.86,SSW,194,6.0,13.0,76,0.00,,SKC,0.02,VWS V14.01,2013-12-05 19:17:00,
2013-12-05 12:22:00,42.8,36.1,29.86,SSE,155,8.0,13.0,77,0.00,,SKC,0.02,VWS V14.01,2013-12-05 19:22:00,
2013-12-05 12:27:00,42.8,36.1,29.86,SSE,152,8.0,13.0,77,0.00,,SKC,0.02,VWS V14.01,2013-12-05 19:27:00,
2013-12-05 12:32:00,42.6,34.9,29.86,SE,136,5.0,11.0,74,0.00,,SKC,0.02,VWS V14.01,2013-12-05 19:32:00,
2013-12-05 12:37:00,42.5,34.8,29.86,South,181,6.0,11.0,74,0.00,,SKC,0.02,VWS V14.01,2013-12-05 19:37:00,
2013-12-05 12:42:00,42.1,34.4,29.86,South,172,4.0,11.0,74,0.00,,SKC,0.02,VWS V14.01,2013-12-05 19:42:00,
2013-12-05 12:47:00,41.7,34.7,29.86,SE,143,7.0,11.0,76,0.00,,SKC,0.02,VWS V14.01,2013-12-05 19:47:00,
2013-12-05 12:52:00,41.4,36.0,29.86,South,191,4.0,11.0,81,0.01,,SKC,0.03,VWS V14.01,2013-12-05 19:52:00,
2013-12-05 12:57:00,41.1,36.0,29.87,South,180,5.0,11.0,82,0.01,,SKC,0.03,VWS V14.01,2013-12-05 19:57:00,
2013-12-05 13:02:00,41.1,36.3,29.86,SSE,165,4.0,8.0,83,0.01,,SKC,0.03,VWS V14.01,2013-12-05 20:02:00,
2013-12-05 13:08:00,41.5,36.4,29.86,SE,143,3.0,8.0,82,0.01,,SKC,0.03,VWS V14.01,2013-12-05 20:08:00,
2013-12-05 13:13:00,41.7,36.0,29.86,SW,215,10.0,10.0,80,0.01,,SKC,0.03,VWS V14.01,2013-12-05 20:13:00,
2013-12-05 13:18:00,41.6,35.6,29.86,South,188,7.0,10.0,79,0.01,,SKC,0.03,VWS V14.01,2013-12-05 20:18:00,
2013-12-05 13:23:00,41.7,35.7,29.85,South,181,2.0,10.0,79,0.01,,SKC,0.03,VWS V14.01,2013-12-05 20:23:00,
2013-12-05 13:28:00,41.7,36.0,29.86,SE,141,6.0,10.0,80,0.01,,SKC,0.03,VWS V14.01,2013-12-05 20:28:00,
2013-12-05 13:33:00,41.9,36.2,29.86,SW,226,6.0,6.0,80,0.01,,SKC,0.03,VWS V14.01,2013-12-05 20:33:00,
2013-12-05 13:38:00,42.3,36.6,29.85,SSW,210,3.0,7.0,80,0.01,,SKC,0.03,VWS V14.01,2013-12-05 20:38:00,
2013-12-05 13:43:00,42.3,35.6,29.86,ESE,119,8.0,12.0,77,0.01,,SKC,0.03,VWS V14.01,2013-12-05 20:43:00,
2013-12-05 13:48:00,41.9,35.2,29.86,SSE,148,3.0,12.0,77,0.01,,SKC,0.03,VWS V14.01,2013-12-05 20:48:00,
2013-12-05 13:53:00,41.8,35.1,29.87,South,180,6.0,12.0,77,0.01,,SKC,0.03,VWS V14.01,2013-12-05 20:53:00,
2013-12-05 13:58:00,41.7,35.4,29.87,SSE,166,3.0,12.0,78,0.01,,SKC,0.03,VWS V14.01,2013-12-05 20:58:00,
2013-12-05 14:03:00,41.9,35.5,29.87,SSE,160,6.0,8.0,78,0.00,,SKC,0.03,VWS V14.01,2013-12-05 21:03:00,
2013-12-05 14:08:00,42.2,35.8,29.86,SSE,160,4.0,10.0,78,0.00,,SKC,0.03,VWS V14.01,2013-12-05 21:08:00,
2013-12-05 14:13:00,42.2,36.2,29.87,South,173,2.0,10.0,79,0.00,,SKC,0.03,VWS V14.01,2013-12-05 21:13:00,
2013-12-05 14:19:00,42.2,35.8,29.86,SSE,166,8.0,10.0,78,0.00,,SKC,0.03,VWS V14.01,2013-12-05 21:19:00,
2013-12-05 14:24:00,42.5,36.1,29.86,South,169,6.0,12.0,78,0.00,,SKC,0.03,VWS V14.01,2013-12-05 21:24:00,
2013-12-05 14:29:00,42.9,36.2,29.86,SSE,155,3.0,12.0,77,0.00,,SKC,0.03,VWS V14.01,2013-12-05 21:29:00,
2013-12-05 14:34:00,43.3,36.3,29.86,South,181,3.0,9.0,76,0.00,,SKC,0.03,VWS V14.01,2013-12-05 21:34:00,
2013-12-05 14:39:00,43.2,36.2,29.86,SSE,158,2.0,9.0,76,0.00,,SKC,0.03,VWS V14.01,2013-12-05 21:39:00,
2013-12-05 14:44:00,43.2,36.2,29.86,South,188,5.0,9.0,76,0.00,,SKC,0.03,VWS V14.01,2013-12-05 21:44:00,
2013-12-05 14:49:00,42.9,35.9,29.86,SE,132,6.0,11.0,76,0.00,,SKC,0.03,VWS V14.01,2013-12-05 21:49:00,
2013-12-05 14:54:00,42.8,36.1,29.86,South,184,5.0,11.0,77,0.00,,SKC,0.03,VWS V14.01,2013-12-05 21:54:00,
2013-12-05 14:59:00,42.7,36.3,29.87,SE,131,6.0,11.0,78,0.00,,SKC,0.03,VWS V14.01,2013-12-05 21:59:00,
2013-12-05 15:04:00,42.4,36.0,29.87,South,169,3.0,9.0,78,0.00,,SKC,0.03,VWS V14.01,2013-12-05 22:04:00,
2013-12-05 15:09:00,42.2,36.2,29.87,SSE,158,4.0,11.0,79,0.00,,SKC,0.03,VWS V14.01,2013-12-05 22:09:00,
2013-12-05 15:14:00,42.3,36.6,29.87,SE,134,4.0,11.0,80,0.00,,SKC,0.03,VWS V14.01,2013-12-05 22:14:00,
2013-12-05 15:19:00,43.1,37.0,29.86,SE,145,4.0,12.0,79,0.00,,SKC,0.03,VWS V14.01,2013-12-05 22:19:00,
2013-12-05 15:24:00,43.8,37.1,29.87,South,170,4.0,12.0,77,0.00,,SKC,0.03,VWS V14.01,2013-12-05 22:24:00,
2013-12-05 15:29:00,44.0,36.3,29.87,SW,215,6.0,12.0,74,0.00,,SKC,0.03,VWS V14.01,2013-12-05 22:29:00,
2013-12-05 15:34:00,43.6,35.9,29.87,SSW,198,4.0,7.0,74,0.00,,SKC,0.03,VWS V14.01,2013-12-05 22:34:00,
2013-12-05 15:39:00,43.3,35.9,29.88,South,172,7.0,7.0,75,0.00,,SKC,0.03,VWS V14.01,2013-12-05 22:39:00,
2013-12-05 15:45:00,43.1,35.7,29.88,SSE,160,4.0,7.0,75,0.00,,SKC,0.03,VWS V14.01,2013-12-05 22:45:00,
2013-12-05 15:50:00,42.8,35.4,29.88,South,184,3.0,7.0,75,0.00,,SKC,0.03,VWS V14.01,2013-12-05 22:50:00,
2013-12-05 15:55:00,42.8,35.4,29.87,SSE,163,4.0,7.0,75,0.00,,SKC,0.03,VWS V14.01,2013-12-05 22:55:00,
2013-12-05 16:00:00,42.9,35.5,29.88,South,184,4.0,5.0,75,0.00,,SKC,0.03,VWS V14.01,2013-12-05 23:00:00,
2013-12-05 16:05:00,42.9,35.2,29.88,South,191,2.0,6.0,74,0.00,,SKC,0.03,VWS V14.01,2013-12-05 23:05:00,
2013-12-05 16:10:00,42.9,34.8,29.88,SSE,150,5.0,6.0,73,0.00,,SKC,0.03,VWS V14.01,2013-12-05 23:10:00,
2013-12-05 16:15:00,42.4,35.4,29.88,SSE,160,4.0,11.0,76,0.00,,SKC,0.03,VWS V14.01,2013-12-05 23:15:00,
2013-12-05 16:20:00,41.9,35.5,29.89,SSE,161,8.0,11.0,78,0.00,,SKC,0.03,VWS V14.01,2013-12-05 23:20:00,
2013-12-05 16:26:00,41.5,36.1,29.89,SE,131,2.0,11.0,81,0.00,,SKC,0.03,VWS V14.01,2013-12-05 23:26:00,
2013-12-05 16:31:00,41.2,36.1,29.90,SSE,158,2.0,7.0,82,0.00,,SKC,0.03,VWS V14.01,2013-12-05 23:31:00,
2013-12-05 16:36:00,41.0,35.9,29.90,SSE,164,4.0,7.0,82,0.00,,SKC,0.03,VWS V14.01,2013-12-05 23:36:00,
2013-12-05 16:41:00,40.9,35.5,29.90,South,169,3.0,8.0,81,0.00,,SKC,0.03,VWS V14.01,2013-12-05 23:41:00,
2013-12-05 16:46:00,40.9,35.5,29.90,South,171,6.0,8.0,81,0.00,,SKC,0.03,VWS V14.01,2013-12-05 23:46:00,
2013-12-05 16:51:00,40.9,35.5,29.90,South,169,2.0,8.0,81,0.00,,SKC,0.03,VWS V14.01,2013-12-05 23:51:00,
2013-12-05 16:56:00,40.9,35.5,29.91,SSE,163,3.0,8.0,81,0.00,,SKC,0.03,VWS V14.01,2013-12-05 23:56:00,
2013-12-05 17:01:00,41.0,35.6,29.91,South,186,2.0,4.0,81,0.00,,SKC,0.03,VWS V14.01,2013-12-06 00:01:00,
2013-12-05 17:06:00,41.0,35.6,29.91,SSE,166,1.0,6.0,81,0.00,,SKC,0.03,VWS V14.01,2013-12-06 00:06:00,
2013-12-05 17:11:00,40.5,35.8,29.91,SSE,150,2.0,8.0,83,0.00,,SKC,0.03,VWS V14.01,2013-12-06 00:11:00,
2013-12-05 17:16:00,40.0,35.6,29.92,SSE,167,2.0,8.0,84,0.00,,SKC,0.03,VWS V14.01,2013-12-06 00:16:00,
2013-12-05 17:21:00,39.6,35.5,29.92,South,176,1.0,8.0,85,0.00,,SKC,0.03,VWS V14.01,2013-12-06 00:21:00,
2013-12-05 17:26:00,39.5,35.7,29.92,South,169,3.0,8.0,86,0.00,,SKC,0.03,VWS V14.01,2013-12-06 00:26:00,
2013-12-05 17:31:00,39.5,35.4,29.92,South,187,1.0,7.0,85,0.00,,SKC,0.03,VWS V14.01,2013-12-06 00:31:00,
2013-12-05 17:36:00,39.6,35.5,29.92,SSW,209,3.0,7.0,85,0.00,,SKC,0.03,VWS V14.01,2013-12-06 00:36:00,
2013-12-05 17:41:00,39.6,35.5,29.92,SW,214,4.0,7.0,85,0.00,,SKC,0.03,VWS V14.01,2013-12-06 00:41:00,
2013-12-05 17:47:00,39.6,35.5,29.92,SSE,157,2.0,7.0,85,0.00,,SKC,0.03,VWS V14.01,2013-12-06 00:47:00,
2013-12-05 17:52:00,39.6,35.5,29.93,SSE,161,4.0,7.0,85,0.00,,SKC,0.03,VWS V14.01,2013-12-06 00:52:00,
2013-12-05 17:57:00,39.7,35.6,29.93,SSE,166,6.0,7.0,85,0.00,,SKC,0.03,VWS V14.01,2013-12-06 00:57:00,
2013-12-05 18:02:00,39.6,35.8,29.92,SSE,166,3.0,7.0,86,0.00,,SKC,0.03,VWS V14.01,2013-12-06 01:02:00,
2013-12-05 18:07:00,39.7,35.6,29.93,South,176,5.0,7.0,85,0.00,,SKC,0.03,VWS V14.01,2013-12-06 01:07:00,
2013-12-05 18:12:00,39.6,35.2,29.93,SSE,148,5.0,7.0,84,0.00,,SKC,0.03,VWS V14.01,2013-12-06 01:12:00,
2013-12-05 18:17:00,39.6,34.9,29.94,SSE,148,5.0,7.0,83,0.00,,SKC,0.03,VWS V14.01,2013-12-06 01:17:00,
2013-12-05 18:22:00,39.4,34.4,29.94,SE,142,4.0,8.0,82,0.00,,SKC,0.03,VWS V14.01,2013-12-06 01:22:00,
2013-12-05 18:27:00,39.2,34.2,29.94,SSE,166,1.0,8.0,82,0.00,,SKC,0.03,VWS V14.01,2013-12-06 01:27:00,
2013-12-05 18:32:00,39.1,33.8,29.94,East,94,6.0,7.0,81,0.00,,SKC,0.03,VWS V14.01,2013-12-06 01:32:00,
2013-12-05 18:37:00,39.1,33.8,29.94,SSE,153,1.0,7.0,81,0.00,,SKC,0.03,VWS V14.01,2013-12-06 01:37:00,
2013-12-05 18:42:00,39.0,33.7,29.94,SE,128,3.0,7.0,81,0.00,,SKC,0.03,VWS V14.01,2013-12-06 01:42:00,
2013-12-05 18:47:00,38.8,33.8,29.95,ESE,119,2.0,7.0,82,0.00,,SKC,0.03,VWS V14.01,2013-12-06 01:47:00,
2013-12-05 18:52:00,38.7,33.7,29.95,SE,129,4.0,7.0,82,0.00,,SKC,0.03,VWS V14.01,2013-12-06 01:52:00,
2013-12-05 18:57:00,38.7,34.0,29.96,SSE,160,4.0,7.0,83,0.00,,SKC,0.03,VWS V14.01,2013-12-06 01:57:00,
2013-12-05 19:02:00,38.8,33.8,29.96,SE,127,5.0,5.0,82,0.00,,SKC,0.03,VWS V14.01,2013-12-06 02:02:00,
2013-12-05 19:07:00,38.9,33.6,29.97,SSE,167,2.0,5.0,81,0.00,,SKC,0.03,VWS V14.01,2013-12-06 02:07:00,
2013-12-05 19:12:00,38.9,33.6,29.97,SW,215,2.0,5.0,81,0.00,,SKC,0.03,VWS V14.01,2013-12-06 02:12:00,
2013-12-05 19:18:00,38.9,34.2,29.98,SW,214,0.0,5.0,83,0.00,,SKC,0.03,VWS V14.01,2013-12-06 02:18:00,
2013-12-05 19:23:00,38.8,34.1,29.98,SSE,159,0.0,5.0,83,0.00,,SKC,0.03,VWS V14.01,2013-12-06 02:23:00,
2013-12-05 19:28:00,38.9,34.2,29.98,SSW,203,2.0,5.0,83,0.00,,SKC,0.03,VWS V14.01,2013-12-06 02:28:00,
2013-12-05 19:33:00,38.9,34.2,29.98,SSW,211,0.0,1.0,83,0.00,,SKC,0.03,VWS V14.01,2013-12-06 02:33:00,
2013-12-05 19:38:00,38.9,34.5,29.98,SSW,212,1.0,2.0,84,0.00,,SKC,0.03,VWS V14.01,2013-12-06 02:38:00,
2013-12-05 19:43:00,38.7,34.6,29.99,South,183,0.0,2.0,85,0.00,,SKC,0.03,VWS V14.01,2013-12-06 02:43:00,
2013-12-05 19:48:00,38.7,34.6,29.98,SSW,203,0.0,3.0,85,0.00,,SKC,0.03,VWS V14.01,2013-12-06 02:48:00,
2013-12-05 19:53:00,38.7,34.9,29.98,West,276,1.0,3.0,86,0.00,,SKC,0.03,VWS V14.01,2013-12-06 02:53:00,
2013-12-05 19:58:00,38.7,35.2,29.99,West,270,1.0,3.0,87,0.00,,SKC,0.03,VWS V14.01,2013-12-06 02:58:00,
2013-12-05 20:03:00,38.6,35.1,29.98,WSW,257,0.0,0.0,87,0.00,,SKC,0.03,VWS V14.01,2013-12-06 03:03:00,
2013-12-05 20:08:00,38.4,34.9,29.98,West,259,0.0,0.0,87,0.00,,SKC,0.03,VWS V14.01,2013-12-06 03:08:00,
2013-12-05 20:13:00,38.1,34.9,29.99,SW,222,0.0,1.0,88,0.00,,SKC,0.03,VWS V14.01,2013-12-06 03:13:00,
2013-12-05 20:18:00,37.8,35.4,29.99,SSW,210,2.0,2.0,91,0.00,,SKC,0.03,VWS V14.01,2013-12-06 03:18:00,
2013-12-05 20:24:00,37.6,35.5,29.99,SSW,207,0.0,2.0,92,0.00,,SKC,0.03,VWS V14.01,2013-12-06 03:24:00,
2013-12-05 20:29:00,37.6,35.5,30.00,SSW,207,0.0,2.0,92,0.00,,SKC,0.03,VWS V14.01,2013-12-06 03:29:00,
2013-12-05 20:34:00,37.4,35.6,30.00,SSW,207,1.0,1.0,93,0.00,,SKC,0.03,VWS V14.01,2013-12-06 03:34:00,
2013-12-05 20:39:00,37.3,35.5,30.00,West,280,0.0,2.0,93,0.00,,SKC,0.03,VWS V14.01,2013-12-06 03:39:00,
2013-12-05 20:44:00,37.2,35.4,30.00,West,279,0.0,2.0,93,0.00,,SKC,0.03,VWS V14.01,2013-12-06 03:44:00,
2013-12-05 20:49:00,36.8,35.0,30.01,West,279,0.0,2.0,93,0.00,,SKC,0.03,VWS V14.01,2013-12-06 03:49:00,
2013-12-05 20:54:00,36.7,35.1,30.01,West,280,0.0,2.0,94,0.00,,SKC,0.03,VWS V14.01,2013-12-06 03:54:00,
2013-12-05 20:59:00,36.3,34.5,30.01,West,279,1.0,2.0,93,0.00,,SKC,0.03,VWS V14.01,2013-12-06 03:59:00,
2013-12-05 21:04:00,35.8,34.0,30.01,West,280,1.0,1.0,93,0.00,,SKC,0.03,VWS V14.01,2013-12-06 04:04:00,
2013-12-05 21:09:00,35.5,34.0,30.01,West,280,1.0,1.0,94,0.00,,SKC,0.03,VWS V14.01,2013-12-06 04:09:00,
2013-12-05 21:14:00,35.1,33.5,30.02,West,280,0.0,1.0,94,0.00,,SKC,0.03,VWS V14.01,2013-12-06 04:14:00,
2013-12-05 21:19:00,34.5,32.7,30.02,West,280,1.0,1.0,93,0.00,,SKC,0.03,VWS V14.01,2013-12-06 04:19:00,
2013-12-05 21:24:00,34.2,32.7,30.02,WSW,251,0.0,3.0,94,0.00,,SKC,0.03,VWS V14.01,2013-12-06 04:24:00,
2013-12-05 21:29:00,34.8,33.5,30.02,NW,318,2.0,3.0,95,0.00,,SKC,0.03,VWS V14.01,2013-12-06 04:29:00,
2013-12-05 21:34:00,35.5,34.2,30.02,NNE,15,1.0,3.0,95,0.00,,SKC,0.03,VWS V14.01,2013-12-06 04:34:00,
2013-12-05 21:39:00,36.2,34.9,30.02,SE,124,0.0,3.0,95,0.00,,SKC,0.03,VWS V14.01,2013-12-06 04:39:00,
2013-12-05 21:45:00,35.5,34.0,30.03,South,169,0.0,3.0,94,0.00,,SKC,0.03,VWS V14.01,2013-12-06 04:45:00,
2013-12-05 21:50:00,35.0,33.5,30.03,South,169,0.0,3.0,94,0.00,,SKC,0.03,VWS V14.01,2013-12-06 04:50:00,
2013-12-05 21:55:00,34.9,33.3,30.03,SE,144,1.0,3.0,94,0.00,,SKC,0.03,VWS V14.01,2013-12-06 04:55:00,
2013-12-05 22:00:00,34.3,32.5,30.03,SSE,160,1.0,2.0,93,0.00,,SKC,0.03,VWS V14.01,2013-12-06 05:00:00,
2013-12-05 22:01:00,34.2,32.4,30.03,SSE,160,0.0,2.0,93,0.00,,SKC,0.03,VWS V14.01,2013-12-06 05:01:00,
2013-12-05 22:02:00,34.1,32.6,30.03,SSE,160,0.0,2.0,94,0.00,,SKC,0.03,VWS V14.01,2013-12-06 05:02:00,
2013-12-05 22:03:00,34.1,32.6,30.03,SSE,159,0.0,2.0,94,0.00,,SKC,0.03,VWS V14.01,2013-12-06 05:03:00,
2013-12-05 22:04:00,34.0,32.5,30.03,SSE,160,0.0,2.0,94,0.00,,SKC,0.03,VWS V14.01,2013-12-06 05:04:00,
2013-12-05 22:06:00,33.9,32.4,30.03,SSE,160,0.0,2.0,94,0.00,,SKC,0.03,VWS V14.01,2013-12-06 05:06:00,
2013-12-05 22:11:00,33.3,31.8,30.04,SW,218,1.0,2.0,94,0.00,,SKC,0.03,VWS V14.01,2013-12-06 05:11:00,
2013-12-05 22:16:00,32.8,31.3,30.04,South,189,0.0,2.0,94,0.00,,SKC,0.03,VWS V14.01,2013-12-06 05:16:00,
2013-12-05 22:21:00,32.5,31.0,30.04,SSW,195,2.0,2.0,94,0.00,,SKC,0.03,VWS V14.01,2013-12-06 05:21:00,
2013-12-05 22:26:00,33.6,32.3,30.05,South,181,0.0,2.0,95,0.00,,SKC,0.03,VWS V14.01,2013-12-06 05:26:00,
2013-12-05 22:31:00,34.2,32.9,30.05,South,171,0.0,1.0,95,0.00,,SKC,0.03,VWS V14.01,2013-12-06 05:31:00,
2013-12-05 22:36:00,34.1,32.8,30.05,NE,54,2.0,2.0,95,0.00,,SKC,0.03,VWS V14.01,2013-12-06 05:36:00,
2013-12-05 22:41:00,33.1,31.6,30.06,NNE,26,3.0,3.0,94,0.00,,SKC,0.03,VWS V14.01,2013-12-06 05:41:00,
2013-12-05 22:47:00,32.7,31.2,30.06,North,6,0.0,3.0,94,0.00,,SKC,0.03,VWS V14.01,2013-12-06 05:47:00,
2013-12-05 22:52:00,32.6,31.1,30.07,WNW,289,1.0,3.0,94,0.00,,SKC,0.03,VWS V14.01,2013-12-06 05:52:00,
2013-12-05 22:57:00,32.9,31.6,30.07,WNW,290,0.0,3.0,95,0.00,,SKC,0.03,VWS V14.01,2013-12-06 05:57:00,
2013-12-05 23:02:00,33.1,31.8,30.07,West,277,2.0,2.0,95,0.00,,SKC,0.03,VWS V14.01,2013-12-06 06:02:00,
2013-12-05 23:07:00,33.2,31.7,30.07,NW,304,5.0,5.0,94,0.00,,SKC,0.03,VWS V14.01,2013-12-06 06:07:00,
2013-12-05 23:12:00,34.3,33.0,30.07,SW,230,0.0,5.0,95,0.00,,SKC,0.03,VWS V14.01,2013-12-06 06:12:00,
2013-12-05 23:17:00,34.1,32.3,30.07,West,281,1.0,5.0,93,0.00,,SKC,0.03,VWS V14.01,2013-12-06 06:17:00,
2013-12-05 23:22:00,35.0,33.2,30.07,SW,224,0.0,5.0,93,0.00,,SKC,0.03,VWS V14.01,2013-12-06 06:22:00,
2013-12-05 23:27:00,35.3,32.7,30.07,NNE,23,2.0,5.0,90,0.00,,SKC,0.03,VWS V14.01,2013-12-06 06:27:00,
2013-12-05 23:32:00,36.0,33.1,30.07,SSW,193,2.0,2.0,89,0.00,,SKC,0.03,VWS V14.01,2013-12-06 06:32:00,
2013-12-05 23:37:00,36.4,32.9,30.07,NNE,30,2.0,5.0,87,0.00,,SKC,0.03,VWS V14.01,2013-12-06 06:37:00,
2013-12-05 23:42:00,36.7,32.6,30.08,South,173,1.0,5.0,85,0.00,,SKC,0.03,VWS V14.01,2013-12-06 06:42:00,
2013-12-05 23:47:00,36.7,31.7,30.08,SE,143,0.0,5.0,82,0.00,,SKC,0.03,VWS V14.01,2013-12-06 06:47:00,
2013-12-05 23:52:00,36.5,30.9,30.08,SSE,155,3.0,5.0,80,0.00,,SKC,0.03,VWS V14.01,2013-12-06 06:52:00,
2013-12-05 23:58:00,36.4,30.5,30.08,SE,143,1.0,5.0,79,0.00,,SKC,0.03,VWS V14.01,2013-12-06 06:58:00,